Regional Weather Roundup
Issued by NWS

Home | Current Version | Previous Version | Text Only | Print | Product List | Glossary Off
Versions: 1 2 3 4 5 6 7 8 9 10 11 12 13 14 15 16 17 18 19 20 21 22 23 24 25 26 27 28 29 30 31 32 33 34 35 36 37 38 39 40 41 42 43 44 45 46 47 48 49 50

000
ASUS43 KBIS 291410
RWRND

NORTH DAKOTA REGIONAL WEATHER ROUNDUP
NATIONAL WEATHER SERVICE BISMARCK ND
900 AM CDT SUN MAY 29 2016

NOTE: "FAIR" INDICATES FEW OR NO CLOUDS BELOW 12,000 FEET WITH NO
SIGNIFICANT WEATHER AND/OR OBSTRUCTIONS TO VISIBILITY.


NDZ001>003-009>011-017-291500-
NORTHWEST NORTH DAKOTA

CITY           SKY/WX    TMP DP  RH WIND       PRES   REMARKS
WILLISTON      SUNNY     54  48  80 S7        30.02R
MINOT          SUNNY     64  54  69 SW5       29.97R
MINOT AFB      SUNNY     59  53  79 W7        29.97R
$$

NDZ018>021-031>035-040>046-291500-
SOUTHWEST NORTH DAKOTA

CITY           SKY/WX    TMP DP  RH WIND       PRES   REMARKS
BISMARCK       SUNNY     59  54  83 W3        30.03R
DICKINSON      SUNNY     58  45  62 W8        30.04R
GARRISON         N/A     60  56  86 W10       30.00S
HETTINGER ARPT SUNNY     59  53  80 NW3       30.08R
$$

NDZ004>008-012>016-024-026-027-054-291500-
NORTHEAST NORTH DAKOTA

CITY           SKY/WX    TMP DP  RH WIND       PRES   REMARKS
GRAND FORKS    CLOUDY    59  56  89 NW9       29.92S
GRND FRKS AFB  CLOUDY    61  57  88 N9        29.93S
DEVILS LAKE    PTSUNNY   62  57  83 W13       29.96R
$$

NDZ022-023-025-028>030-036>039-047>053-291500-
SOUTHEAST NORTH DAKOTA

CITY           SKY/WX    TMP DP  RH WIND       PRES   REMARKS
FARGO          PTSUNNY   64  58  80 NW12      29.93R
JAMESTOWN      CLOUDY    60  58  92 NW9       29.97R FOG
$$





USA.gov is the U.S. government's official web portal to all federal, state and local government web resources and services.